FENGYUN 1C DEB, 31743

Orbit data source: Space-Track

FENGYUN 1C DEB, 31743 is space debris in SSO originally from a launch on Mon, 10 May 1999 UTC launched from the Taiyaun Space Center, China (TSC). Fengyun 1C debris stems from the Chinese weather satellite Fengyun-1C, which was intentionally destroyed by a Chinese anti-satellite missile in 2007. This event dramatically increased the amount of space debris, with thousands of trackable fragments posing hazards to satellites and human spaceflight. The Fengyun 1C debris cloud has become a focal point in discussions about space sustainability and the need for international regulations to prevent the creation of new debris.

Loading next visibility...
Identifier
31743, 1999-025CES
Orbit
SSO
Country
Flag of CNCN / PRC
Related business
Manufacturer
Unknown
Mission
Spacecraft
Bus & Motor
Unknown
Mass
Unknown
Launch date (UTC)
1999-05-10 (27 years ago)
Launch vehicle
Unknown
Launch site
Taiyaun Space Center, China (TSC)
Object type
Payload
Rocket body
Debris
Shape & HBR
Unknown shape, 0.1 m
Radar Cross Section
Small (<0.1 m²)

Expand to show TLE details & history
Last TLE update: 2 days ago

TLE from 2 days ago
0 FENGYUN 1C DEB
1 31743U 99025CES 25351.04317194  .00002910  00000-0  11084-2 0  9996
2 31743  99.1426 279.1851 0037288 206.0396 216.8231 14.31327674957022
Epoch: 2025-12-17T01:02Z
TLE epoch observation values (Epoch: 2025-12-17T01:02:10.055Z)
Latitude
61.32991°
Longitude
160.70103°
Altitude
819.163 km
Speed
7.438 km/s
True Right ascension
17h 28m 38s
True Declination
61° 11' 10"
Sunlit
Object was in daylight at epoch
Visualization orbit readout
Latitude
Unknown
Longitude
Unknown
Altitude
Unknown
Speed
Unknown
Apparent Right ascension
Unknown
Apparent Declination
Unknown
Sunlit
N/A
Visualization observer readout
Local Sidereal Time
05:13:13
Azimuth
Unknown
Elevation
Unknown
Doppler factor
Unknown
Orbital elements
Apogee altitude
811.169 km
Perigee altitude
757.753 km
Semi-major axis
7,162.598 km
Eccentricity
0.00373
Inclination
99.1426°
RAAN
279.1851°
Arg. of periapsis
206.0396°
True anomaly
216.56796°
Mean anomaly
216.8231°
Eccentric anomaly
216.69543°
Mean motion
3.58045 °/min
Orbital period
100.55 mins
BSTAR
0.0011084
Loading maneuver chart data...
Computing Atmospheric mass density...

Documentation

Showing up to 5 results
|